Location: *
(43.6428°N, 11.5461°E)
Time: 06:10:11
(UTC+00:00)

Cosmos 1939 Rocket - Pass Details

Date: 21 October 2019
Orbit: 533 x 584 km, 97.4° (Epoch: 14 November)

Event Time Altitude Azimuth Distance (km) Brightness Sun altitude
Exits shadow 17:49:18 12° 151° (SSE) 1,701 5.0 -16.6°
Maximum altitude 17:52:51 56° 74° (ENE) 678 2.9 -17.2°
Drops below altitude 10° 17:56:51 10° 356° (N) 1,884 5.6 -18.0°
Sets 17:59:03 0° 352° (N) 2,794 6.6 -18.4°
